GFSMW_925_temp_273.txt.gz
Temp
14 13 12 12 13 15 15 17 18 18 19 18 18 17 17 18 18 19 20 21 21 20 20 20 20 20 20 20 20 20 20 20 21 19 18 19 18 19 19 19 19 19 18
12 12 11 10 11 11 12 13 16 18 18 18 18 18 18 18 19 18 18 19 20 21 21 20 20 20 20 20 20 20 19 20 20 19 18 15 17 17 17 17 17 18 18
11 11 10 9 9 9 10 10 12 14 16 18 18 18 18 18 17 17 18 19 20 21 21 20 20 20 20 20 20 20 20 19 20 20 20 15 16 16 16 17 17 18 17
10 10 9 9 8 8 9 10 11 13 15 17 18 18 19 19 18 18 19 19 20 19 19 19 20 20 20 20 21 21 21 19 19 19 21 21 19 15 16 15 17 17 17
9 9 8 8 8 8 8 9 10 11 13 15 16 18 18 19 20 19 18 18 18 19 19 18 20 19 20 20 20 20 20 20 19 19 19 19 18 19 15 16 15 15 16
9 8 8 7 7 7 8 9 9 10 11 12 14 15 16 18 20 20 19 18 18 19 19 18 18 19 19 20 20 21 21 20 20 20 20 20 19 16 16 13 14 15 15
8 7 7 7 7 7 7 8 8 9 9 10 11 12 14 16 18 19 20 19 18 18 18 18 19 18 19 19 19 20 20 20 19 20 20 19 19 20 19 19 14 13 15
8 7 7 7 7 7 7 8 8 8 9 8 9 10 11 12 15 18 19 19 19 18 18 18 19 19 18 19 19 19 20 19 19 19 20 19 19 19 20 19 18 11 11
7 7 8 8 7 7 6 7 8 8 8 8 8 8 10 10 13 16 18 19 19 19 18 18 18 19 18 18 18 18 18 18 19 19 19 20 19 19 19 20 20 19 15
7 7 8 8 8 7 7 7 7 7 7 7 7 7 8 10 11 14 16 18 19 20 19 18 18 18 18 18 19 18 18 18 18 19 18 18 19 19 19 19 19 20 20
7 7 8 8 8 7 7 7 7 7 7 7 7 7 7 9 10 12 14 15 18 18 18 18 18 18 18 18 18 18 18 18 18 18 18 18 18 18 18 18 18 18 18
6 7 7 8 8 8 7 7 7 7 6 6 6 6 7 7 8 9 11 13 15 16 16 17 18 18 17 17 17 17 18 18 17 18 17 18 18 18 18 17 17 18 18
6 6 7 7 7 7 7 7 7 6 6 6 6 5 6 6 7 7 9 10 13 14 15 14 17 17 18 18 18 18 18 18 18 17 18 18 17 18 17 18 17 17 17
6 6 6 6 7 7 7 7 6 6 5 5 5 5 5 5 6 6 7 9 10 12 13 13 14 17 16 17 18 18 18 17 18 18 17 18 18 17 18 17 17 17 17
6 6 6 6 7 7 7 7 6 6 5 4 4 5 4 4 5 6 6 7 8 10 13 14 14 14 14 15 17 18 18 17 17 18 17 17 18 18 18 18 17 17 17
6 6 7 7 7 7 7 7 6 5 5 4 4 4 4 4 4 5 5 6 6 8 10 13 13 13 15 16 16 17 18 18 18 17 18 17 17 18 18 18 18 18 17
6 6 6 7 7 7 7 6 6 5 5 4 3 3 3 3 3 4 4 5 5 6 8 9 12 12 12 12 15 16 17 18 18 18 18 18 17 17 17 18 18 18 18
6 6 7 8 7 7 7 6 6 5 4 4 3 3 3 3 3 3 3 4 4 5 5 7 8 10 10 10 12 14 15 16 18 18 18 18 18 17 17 16 16 17 17
6 7 8 8 7 6 6 6 5 5 4 3 3 2 2 2 2 2 2 3 4 4 4 5 6 6 6 6 11 12 14 14 16 16 17 18 17 17 17 17 16 15 15
8 8 8 7 7 6 6 5 5 4 3 3 2 2 2 2 2 1 2 2 2 3 4 4 4 4 5 5 5 9 11 8 12 15 16 17 17 18 18 17 16 16 15
8 8 7 7 6 6 5 4 4 3 2 2 2 2 2 2 2 1 1 1 1 2 2 3 3 3 3 4 6 5 5 9 5 13 15 16 16 17 18 18 17 16 16
7 7 6 6 6 5 4 4 3 2 2 2 1 1 1 1 1 1 0 0 1 1 1 1 2 2 3 3 4 5 5 6 5 8 12 11 15 14 15 15 15 15 14
6 6 5 5 5 4 3 2 2 1 1 1 1 1 1 1 1 0 -0 -0 0 0 1 1 1 1 2 2 2 3 4 4 6 6 8 11 10 11 12 14 15 15 14
4 4 4 3 3 2 2 1 1 1 0 1 1 0 0 0 -0 -1 -1 -1 -1 -0 0 0 0 0 0 1 1 2 3 4 4 5 6 7 10 12 13 13 14 14 15
3 3 2 2 1 1 0 -0 -1 -0 -0 0 0 -0 0 0 -1 -1 -1 -1 -1 -1 -1 -1 -0 -1 -0 0 1 1 2 3 3 4 6 6 6 6 10 13 12 13 13
2 1 1 0 -0 -0 -1 -1 -1 -1 -1 -1 0 -0 0 -0 -1 -1 -1 -1 -1 -1 -1 -1 -1 -1 -0 -0 0 1 1 3 3 3 2 2 2 2 3 4 6 7 8

GFSMW_925_temp_276.txt.gz
Temp
11 10 9 9 10 11 11 11 13 14 15 17 17 17 17 17 17 17 17 18 19 20 20 19 20 20 19 19 19 19 19 19 20 19 18 18 18 18 18 18 17 18 18
10 9 9 8 8 8 9 10 11 12 14 14 16 17 17 17 17 17 17 17 18 19 20 20 20 20 19 19 19 19 18 19 19 18 18 15 17 17 18 17 17 17 18
8 8 8 7 7 7 8 8 9 11 12 13 16 17 17 17 17 17 17 18 18 19 19 19 19 20 19 19 20 19 19 18 18 18 19 15 16 16 17 17 18 17 17
8 8 7 7 7 7 7 8 9 10 11 12 13 15 17 17 17 17 17 17 17 17 17 17 17 19 20 18 20 20 19 18 18 17 19 19 19 16 16 15 16 17 17
7 7 7 7 7 7 7 8 8 9 9 11 11 11 13 17 18 18 18 17 17 18 17 18 17 18 18 18 19 19 19 19 18 18 18 18 17 18 16 15 15 15 17
8 8 7 7 7 7 7 7 8 8 9 9 11 10 10 12 15 17 18 18 18 17 18 17 17 17 17 18 19 19 19 19 19 19 19 19 18 15 16 14 14 15 15
7 6 7 7 7 7 7 7 7 7 7 8 8 9 10 10 11 14 16 17 17 17 18 18 17 17 18 18 17 18 18 19 18 18 19 19 19 19 19 19 14 14 16
7 6 7 8 7 7 7 7 7 7 7 7 7 8 8 9 10 11 13 16 17 18 18 17 18 18 17 18 17 17 19 17 18 18 18 18 18 19 19 19 18 13 12
8 6 8 8 8 8 7 7 7 7 7 6 6 6 7 7 9 10 12 13 15 17 18 17 18 18 17 17 17 17 17 17 18 18 18 19 18 18 18 19 19 19 19
6 7 7 8 8 8 8 7 6 6 6 7 6 6 6 7 7 8 10 10 12 15 17 18 17 17 17 17 17 17 17 17 17 18 18 18 18 18 18 18 18 18 19
6 6 7 8 8 8 7 7 6 6 6 5 6 5 5 6 6 7 8 9 10 12 14 16 17 17 16 16 16 17 17 16 17 17 17 17 17 18 18 17 17 17 18
6 6 7 7 7 7 7 7 6 5 5 5 5 5 5 5 5 6 7 7 8 10 12 13 15 16 17 16 16 16 16 16 16 17 17 17 17 17 18 17 17 17 17
5 6 7 7 7 7 7 7 6 5 5 5 5 4 4 4 4 5 5 6 7 8 10 11 13 14 15 17 16 16 16 16 16 17 17 17 17 17 17 17 17 17 17
5 5 5 6 7 8 7 7 6 6 5 4 4 4 4 4 4 4 5 5 6 6 7 9 10 12 14 15 17 17 16 16 16 16 17 17 17 17 17 17 17 17 16
6 5 5 6 7 8 7 7 6 6 5 4 3 3 3 3 3 4 4 4 5 5 6 7 9 10 13 14 14 14 15 16 16 16 16 16 17 17 17 17 17 17 16
5 5 6 6 6 7 7 6 6 5 5 4 3 3 3 3 3 3 4 4 4 4 5 5 7 8 10 10 13 14 14 14 14 15 15 16 17 17 17 18 18 17 16
5 5 6 6 7 7 6 6 5 5 4 3 3 2 3 2 2 2 3 4 4 3 4 5 5 6 8 8 8 11 14 15 14 15 16 16 16 16 16 17 17 17 17
5 5 6 6 7 7 6 6 5 4 4 3 2 2 2 2 2 2 2 2 3 3 3 4 4 5 5 5 6 8 9 14 15 16 15 16 17 17 16 15 15 16 16
6 7 7 7 7 6 6 5 5 4 3 2 2 2 2 1 1 1 1 1 1 2 3 3 3 4 4 4 3 3 7 8 11 13 15 15 15 15 16 16 15 15 14
6 7 7 7 7 6 5 4 4 3 2 2 2 2 1 1 1 1 0 0 0 1 1 2 2 2 2 3 2 2 2 3 5 10 12 13 15 16 16 14 14 15 15
7 7 6 6 6 5 4 4 3 2 2 2 2 1 1 1 0 0 -0 -0 0 0 0 1 1 1 1 2 2 2 1 1 1 3 6 9 12 13 14 14 14 15 16
6 6 5 5 5 4 3 2 2 1 1 1 1 1 0 0 0 -0 -1 -1 -1 -1 -0 -0 -0 0 0 1 2 3 3 3 1 2 3 6 8 9 11 16 15 14 15
5 5 4 4 3 3 2 1 1 0 -0 -0 0 0 -0 -0 0 -1 -1 -1 -1 -1 -1 -1 -1 -1 -1 -1 -0 1 2 3 2 3 4 4 6 8 9 11 13 13 13
4 3 3 2 1 1 1 0 -0 -1 -1 -0 -0 -0 -1 -0 -0 -1 -1 -1 -2 -1 -1 -1 -1 -1 -1 -1 -1 -1 -0 1 1 3 4 5 5 5 6 8 8 9 12
3 2 2 1 1 0 0 -0 -1 -1 -1 -1 -0 -0 -1 -1 -1 -1 -1 -1 -2 -2 -2 -2 -2 -2 -2 -2 -1 -1 -1 -1 0 1 3 3 2 2 3 4 5 6 7
2 2 1 1 1 -0 -0 -0 -1 -1 -1 -1 -1 -0 -1 -1 -1 -2 -2 -2 -2 -1 -1 -1 -1 -1 -1 -1 -2 -1 -1 -1 -0 0 -0 0 0 1 1 1 2 2 4

GFSMW_925_temp_279.txt.gz
Temp
12 11 10 10 9 8 8 9 10 10 12 14 14 17 17 17 17 17 17 17 18 18 18 17 18 19 17 17 19 19 17 17 18 18 18 18 17 17 17 17 17 17 16
12 11 10 10 9 9 8 8 9 9 10 11 12 13 16 17 17 17 17 17 17 18 18 18 17 17 17 16 17 18 17 18 17 20 20 21 20 17 17 17 17 17 17
11 11 10 9 9 9 8 8 8 9 9 9 10 13 16 17 17 17 17 17 17 17 18 17 17 16 17 17 17 17 17 19 17 18 21 21 22 21 19 17 17 17 16
11 11 10 9 9 8 8 8 8 8 8 8 9 9 11 12 16 17 17 17 16 16 17 17 16 16 17 17 17 16 17 17 19 17 19 18 19 22 21 17 17 17 17
11 10 10 9 9 8 8 8 8 8 8 8 8 9 9 10 12 14 16 17 16 16 16 17 16 16 17 17 17 17 17 17 18 18 19 19 19 18 20 22 18 15 16
11 10 10 9 9 9 8 8 8 8 8 7 7 8 8 9 10 11 13 15 16 16 16 16 16 16 16 16 17 17 17 17 17 19 19 20 19 20 19 21 20 20 18
11 11 10 10 9 9 8 8 8 8 8 7 7 7 7 8 9 10 11 12 14 16 16 16 16 16 16 16 16 16 16 17 17 17 18 19 20 20 20 21 22 20 19
11 11 10 9 9 9 8 8 8 8 8 7 7 7 7 7 8 8 9 11 12 13 15 16 16 16 16 16 16 16 16 16 16 17 17 18 19 19 20 20 21 21 20
11 10 10 9 9 8 8 8 7 7 7 7 6 6 6 6 7 7 8 9 10 11 13 14 16 17 16 16 15 15 15 16 16 16 17 17 18 18 19 19 20 21 22
10 10 9 9 9 8 8 7 7 7 6 6 6 6 6 6 6 6 7 7 8 9 10 12 14 16 16 15 15 15 15 16 16 16 17 17 18 18 18 19 19 20 20
10 10 9 9 8 8 8 7 7 7 6 6 6 5 5 5 5 6 6 7 7 7 9 10 12 13 15 16 15 15 16 16 16 16 17 17 17 18 18 18 19 19 19
9 9 9 8 8 8 8 7 7 6 6 6 5 5 5 5 5 5 5 6 6 7 8 9 9 11 12 13 16 15 15 15 15 16 16 17 17 17 17 18 18 18 18
9 9 9 9 8 8 7 7 7 6 5 5 5 5 4 4 5 5 5 5 6 6 7 7 8 9 10 11 13 14 16 16 16 15 16 16 17 17 17 17 18 17 18
9 9 8 8 8 7 7 7 7 6 5 5 5 4 4 4 4 4 4 4 5 5 6 6 7 7 9 10 11 12 13 16 16 15 15 16 16 16 17 17 17 17 17
9 9 9 8 8 7 7 7 6 5 5 5 4 4 3 3 4 4 4 4 4 5 5 6 6 6 7 6 6 8 9 12 15 16 15 15 16 16 16 16 16 16 16
9 9 8 8 8 7 7 6 5 5 4 4 4 4 3 3 3 3 3 3 4 4 4 5 5 5 5 5 5 4 6 9 11 14 15 16 15 15 15 15 15 16 16
9 9 8 8 7 7 6 6 5 4 4 3 3 3 3 3 3 3 3 3 3 3 3 4 4 4 4 4 4 4 4 6 8 10 13 15 15 15 14 15 15 15 16
9 8 8 7 7 6 6 5 5 4 4 3 3 3 2 2 2 2 3 2 2 2 2 3 3 3 3 3 3 3 3 3 4 6 8 11 14 15 14 15 15 15 16
7 7 6 6 6 6 5 5 5 4 3 3 2 2 2 2 2 2 2 1 1 1 1 2 2 3 2 3 2 2 2 2 3 4 7 7 8 10 10 14 15 15 16
7 7 7 6 5 5 4 4 4 3 3 2 1 1 1 1 1 1 1 0 -0 0 0 1 1 1 2 1 1 0 0 1 1 2 4 5 6 7 9 8 10 14 15
7 7 6 6 5 4 3 4 3 3 2 1 1 1 1 0 0 1 0 -1 -0 0 -0 0 0 0 0 0 -0 -1 -1 -1 -0 1 2 3 4 6 7 8 8 9 14
7 6 6 5 4 3 3 3 3 1 0 0 0 0 0 -0 0 0 -0 -1 -1 -1 -0 -0 -0 -0 -1 -1 -1 -1 -2 -1 -1 -0 0 1 3 5 5 7 8 10 11
7 5 4 4 3 2 2 2 1 0 -0 -0 -0 0 0 -0 -0 -0 -1 -1 -1 -1 -1 -1 -1 -1 -1 -1 -1 -2 -2 -2 -1 -1 -1 2 3 3 4 5 6 7 10
6 4 4 4 3 2 1 1 0 -0 -1 -1 -1 -0 0 0 -0 -1 -1 -1 -1 -1 -1 -1 -1 -1 -1 -1 -1 -2 -2 -2 -2 -2 -1 1 1 1 2 4 4 4 5
4 3 3 2 2 1 1 0 -0 -1 -1 -1 -1 -1 -0 -0 -1 -1 -1 -2 -2 -2 -2 -2 -2 -2 -2 -2 -1 -1 -2 -2 -2 -2 -1 -1 -0 -0 0 1 1 2 3
4 3 2 1 1 1 0 -0 -1 -1 -1 -1 -0 -0 -1 -1 -1 -1 -2 -2 -2 -2 -2 -2 -2 -2 -2 -2 -2 -1 -2 -2 -2 -2 -2 -1 -1 -1 -1 -0 -0 0 1

GFSMW_925_temp_285.txt.gz
Temp
19 18 17 16 16 15 15 15 15 15 15 15 16 16 16 16 14 17 16 17 18 19 19 20 21 21 22 23 23 22 22 23 22 23 24 24 24 23 23 23 23 23 22
19 18 17 16 16 15 14 15 14 15 14 14 15 15 16 17 15 14 14 17 17 18 18 19 19 20 21 22 22 22 22 22 22 23 23 24 25 24 23 22 23 23 23
18 18 17 17 16 15 14 14 14 14 14 13 14 14 16 17 16 13 12 13 14 14 17 18 18 18 19 21 21 21 22 22 22 22 23 24 25 26 25 23 22 23 22
18 18 17 17 16 15 15 14 14 14 13 13 13 13 14 15 15 14 12 12 12 12 15 16 17 17 18 19 20 21 21 21 22 23 22 22 22 24 26 26 23 22 23
18 17 17 17 16 15 15 14 14 14 13 12 12 12 13 13 14 14 13 12 12 12 12 13 16 17 17 17 19 20 20 20 21 22 23 22 22 22 23 25 26 24 23
18 17 17 17 16 15 15 14 14 14 13 12 12 12 12 12 13 13 14 13 12 12 12 12 12 14 15 16 17 18 20 20 20 21 22 23 23 23 23 24 24 25 25
18 17 17 17 16 15 14 14 14 14 13 12 12 12 11 12 12 12 12 12 12 12 12 11 11 12 13 15 16 17 18 18 19 19 20 21 22 24 24 24 24 25 25
17 16 16 16 15 15 14 13 13 13 13 12 12 11 11 11 12 11 11 12 11 12 12 11 11 11 12 13 15 15 15 17 17 18 19 20 21 21 23 23 24 24 25
16 16 16 15 14 14 14 13 13 13 13 12 11 11 11 11 11 11 11 11 11 11 11 11 12 11 11 12 12 14 15 16 17 17 17 17 18 19 21 22 23 23 24
16 16 15 14 14 14 14 13 13 13 12 11 11 11 10 10 10 10 10 10 10 10 10 10 10 11 12 11 11 11 13 15 16 16 17 17 17 18 19 19 21 22 23
16 15 15 14 14 14 14 13 13 12 12 11 11 10 10 10 10 10 10 10 9 10 10 9 9 9 11 11 10 9 10 11 13 16 16 17 17 17 18 19 19 20 22
16 15 15 14 14 14 14 13 12 12 11 11 11 10 10 9 9 9 9 9 9 9 9 9 8 8 9 9 8 7 7 7 10 13 13 15 17 16 17 17 18 18 19
16 15 15 14 14 14 13 13 12 12 11 11 10 10 9 9 9 9 8 8 9 9 9 8 7 7 7 6 6 7 7 7 7 8 10 11 14 14 16 17 17 17 17
16 15 15 14 14 14 13 13 12 11 11 10 10 10 9 9 9 8 8 8 8 8 8 8 7 7 6 6 5 5 6 7 8 8 8 9 10 11 13 15 16 15 15
16 15 15 14 14 14 13 13 12 11 10 10 10 9 9 9 8 8 8 8 8 8 8 8 7 6 6 5 4 4 5 6 8 8 8 9 9 9 9 10 12 15 15
16 16 15 14 14 13 13 12 12 11 10 10 9 9 9 9 8 8 8 8 8 8 7 7 7 7 6 5 4 3 3 6 7 7 7 7 8 8 7 9 9 11 11
15 15 15 14 13 13 13 12 12 11 10 10 9 9 9 8 8 8 8 8 7 7 6 7 7 7 7 5 4 3 3 5 5 7 7 6 7 6 5 6 9 10 11
15 15 14 14 13 12 12 12 11 11 10 10 9 9 8 8 8 8 8 7 7 6 6 7 7 6 6 5 4 2 3 4 5 5 5 6 5 6 4 2 3 5 8
15 14 14 13 13 12 12 11 11 10 10 10 9 8 7 7 7 7 7 7 7 6 6 6 6 6 6 5 3 1 2 4 5 5 5 5 5 4 3 1 2 3 5
15 14 14 13 13 12 12 11 10 10 10 9 8 7 7 7 7 6 6 6 6 6 6 5 5 5 5 5 3 1 1 2 2 2 4 4 4 3 2 -1 -0 2 3
14 14 14 13 13 12 11 10 10 10 10 8 7 7 6 6 6 6 6 6 6 5 5 4 3 3 4 4 3 1 0 0 -0 0 2 2 1 -0 -0 -1 -0 1 2
13 13 14 14 13 11 11 11 10 10 9 7 7 7 7 6 6 6 6 6 5 5 4 3 2 2 2 2 2 1 0 -0 -0 -0 -0 -0 -1 -2 -1 -1 0 1 1
12 13 13 13 13 12 11 10 9 9 8 7 7 7 6 6 6 5 5 5 4 4 4 3 2 1 1 1 0 0 0 -0 -0 -1 -0 -1 -1 -1 -1 -0 -0 0 1
12 12 12 12 13 12 10 9 8 8 7 7 6 6 6 6 5 5 5 5 4 4 3 2 2 1 0 -0 -0 -1 -1 -1 -1 -1 -1 -1 -1 -1 -1 -1 -0 -0 0
11 12 12 12 12 11 10 9 8 7 6 6 6 6 6 6 5 5 5 4 4 3 2 1 0 -0 -1 -1 -1 -2 -2 -2 -2 -1 -2 -1 -1 -1 -1 -1 -0 0 0
11 11 11 11 11 10 8 8 7 6 6 5 5 5 5 5 5 4 4 4 4 3 2 1 0 -1 -1 -1 -1 -1 -1 -1 -1 -2 -2 -1 -1 -1 -0 -0 -0 -0 0

GFSMW_925_temp_288.txt.gz
Temp
19 18 17 17 16 15 15 15 15 14 14 14 15 15 15 16 17 15 15 15 14 14 15 16 17 20 21 22 23 23 22 22 22 23 23 24 24 23 23 23 23 22 22
19 18 18 17 17 16 15 15 15 14 13 13 14 14 14 15 16 15 14 13 12 13 15 15 16 16 19 20 22 22 22 22 22 22 22 19 22 24 23 23 23 23 22
18 18 18 17 17 15 15 15 14 14 13 13 13 13 13 14 14 14 15 14 12 12 13 13 14 16 16 19 20 21 22 22 22 22 22 19 19 23 24 23 23 23 23
19 18 18 18 17 16 15 14 14 14 13 13 12 12 12 13 13 13 13 14 13 13 12 12 12 13 15 17 17 19 21 21 21 21 22 22 22 19 19 23 22 22 23
19 18 17 17 17 16 15 14 14 14 13 13 12 12 12 12 12 13 13 13 13 12 12 12 12 13 12 13 14 17 18 20 20 21 22 21 21 21 20 19 22 22 22
18 17 17 17 17 16 15 14 14 14 13 12 12 12 11 12 12 12 12 12 12 12 12 12 12 12 12 12 13 15 15 16 19 20 20 21 21 20 20 18 21 21 23
17 17 17 16 16 15 15 14 14 14 13 12 12 12 11 11 11 11 11 12 11 11 11 11 11 11 12 12 12 13 14 15 16 15 17 20 21 22 21 21 21 21 23
17 17 16 16 15 15 15 14 13 13 13 12 11 11 11 11 11 10 11 11 11 10 10 10 10 11 11 11 11 12 12 13 14 14 14 14 18 20 21 22 22 19 21
17 16 16 15 14 15 15 14 13 13 13 12 11 11 10 10 10 10 10 10 10 10 10 10 9 10 10 10 10 10 9 11 12 13 14 14 15 17 19 20 21 21 20
16 16 16 15 15 15 15 14 13 13 12 12 11 11 10 10 10 9 9 9 9 9 9 10 9 8 9 9 9 8 8 9 9 11 12 14 14 14 16 18 19 19 19
16 16 16 15 15 15 15 14 14 13 12 12 11 11 10 10 9 9 9 9 9 9 9 9 9 8 8 7 8 8 7 7 8 8 9 11 13 14 15 16 17 18 18
16 16 16 15 15 15 14 14 14 13 12 12 11 11 10 9 9 9 9 9 9 9 9 9 8 8 7 7 6 6 6 6 7 8 8 9 9 11 12 14 15 16 17
16 16 16 15 15 15 14 14 13 13 12 11 11 10 10 9 9 9 9 8 8 8 8 8 8 7 7 6 5 5 5 5 6 8 8 8 9 9 9 10 12 13 13
16 16 16 15 15 14 14 14 14 13 12 11 11 10 10 9 9 9 8 8 8 8 8 8 8 7 6 6 6 5 4 4 5 7 8 8 8 8 7 7 8 9 11
17 16 16 15 15 14 14 14 13 13 12 11 10 10 10 9 9 9 8 8 8 8 8 7 7 7 7 6 5 5 4 3 5 6 7 7 7 6 6 6 5 5 7
16 17 16 16 15 14 14 13 13 12 12 11 10 10 10 9 9 8 8 8 8 7 7 7 7 7 7 6 5 5 4 4 5 6 6 6 7 6 5 5 5 5 4
16 16 16 15 15 14 13 13 13 12 11 11 11 10 10 9 8 8 8 8 7 7 7 7 7 7 7 6 5 4 3 3 4 5 5 5 5 5 5 4 4 3 4
16 16 16 15 14 14 14 13 12 12 12 11 11 10 9 8 8 8 8 7 7 7 7 6 7 6 6 6 5 4 2 2 3 4 3 3 4 4 3 3 2 2 2
15 15 15 14 14 14 13 13 12 12 11 11 11 10 8 8 7 7 7 7 6 6 6 6 6 5 4 4 4 3 2 1 2 2 1 2 3 2 1 0 -1 -0 1
14 14 14 14 14 14 13 13 12 11 11 11 10 9 8 7 7 7 7 6 6 6 6 6 5 4 3 4 3 2 2 1 1 1 0 0 1 -0 -1 -1 -2 -1 -0
14 14 13 13 14 14 14 13 12 11 11 11 9 8 8 7 7 7 7 6 6 6 6 5 4 3 2 2 2 1 1 0 0 0 -0 -0 -0 -1 -1 -1 -2 -1 -1
13 13 13 13 13 13 13 13 12 11 11 10 9 8 7 7 7 7 6 6 5 6 5 4 4 3 3 2 1 1 0 -0 -0 -1 -1 -1 -1 -1 -1 -2 -1 -1 -1
13 13 13 13 13 13 13 12 10 9 8 9 8 8 7 7 7 7 6 6 5 5 5 4 3 2 2 1 0 -0 -0 -1 -1 -1 -1 -1 -2 -2 -2 -1 -1 -1 -0
12 12 12 12 12 12 12 12 10 9 9 8 8 7 7 7 6 6 6 5 5 5 4 4 3 2 1 1 -0 -1 -1 -2 -2 -2 -2 -2 -2 -2 -1 -1 -1 -1 -0
12 12 12 11 11 12 12 11 8 7 7 8 7 7 6 6 6 5 5 5 5 5 4 3 3 2 1 1 0 -0 -1 -1 -1 -1 -2 -2 -2 -1 -1 -1 -1 -1 -1
4 5 7 9 11 10 9 8 7 7 7 7 6 6 5 5 5 4 4 4 4 3 3 3 2 2 2 1 1 0 -0 -0 -1 -1 -2 -2 -2 -1 -1 -1 -1 -0 -1

GFSMW_925_temp_291.txt.gz
Temp
17 17 17 16 15 15 14 14 14 13 13 12 12 13 13 13 13 14 13 13 13 13 14 14 15 16 17 18 18 18 20 22 22 22 22 22 22 23 23 23 23 22 21
15 17 17 16 15 15 14 14 14 13 13 12 12 12 12 12 12 13 13 12 13 13 12 13 14 14 14 15 17 18 16 20 22 21 21 17 21 23 23 23 23 22 21
15 16 17 17 15 15 14 14 14 13 13 12 12 11 11 11 12 12 12 12 12 12 12 12 12 13 13 14 15 15 18 15 18 21 21 17 17 20 23 23 23 23 22
15 16 16 17 15 14 14 14 14 13 12 12 12 11 11 11 11 11 11 12 11 11 11 11 11 11 12 12 13 14 15 15 15 18 20 22 22 17 17 21 23 23 22
13 14 16 16 14 14 14 14 14 13 13 12 11 11 11 11 11 11 11 11 11 11 11 10 11 10 11 11 12 12 14 15 15 15 17 18 19 20 18 18 19 21 21
14 16 16 16 15 15 14 13 13 13 12 12 11 11 10 10 10 10 10 10 10 10 10 10 10 10 10 10 11 11 12 13 14 14 15 14 15 17 17 16 19 19 22
13 14 15 15 15 15 14 13 13 13 12 12 11 11 10 10 10 10 10 10 10 9 10 10 9 9 9 9 10 10 10 11 12 14 14 15 14 15 14 14 17 18 21
13 14 15 14 14 14 14 13 13 13 12 12 11 11 10 10 9 9 9 9 9 9 9 9 9 8 9 8 8 9 8 9 9 11 13 14 14 14 14 13 15 16 19
13 14 15 14 15 14 14 14 13 13 12 12 11 11 10 10 9 9 9 9 9 9 9 9 9 8 8 8 8 7 7 7 8 8 10 11 13 13 14 13 14 12 15
14 14 15 15 15 15 14 14 13 13 12 12 11 11 10 10 9 9 9 8 8 8 8 9 8 8 7 7 6 7 6 6 7 7 8 9 10 11 13 13 13 13 13
14 14 15 15 15 15 14 14 13 13 12 12 11 11 10 10 9 9 8 8 8 8 8 8 8 8 7 7 6 5 5 5 6 7 8 8 9 9 10 11 13 13 14
13 15 15 15 15 15 14 14 14 13 12 12 11 11 10 9 9 9 8 8 8 8 8 8 7 7 7 7 6 5 5 5 5 6 7 8 8 8 8 8 9 11 11
13 14 15 15 15 14 14 14 14 13 12 12 11 10 10 10 9 9 8 8 8 8 8 7 7 7 7 7 6 5 5 5 5 6 6 7 7 6 6 6 6 6 6
14 13 14 14 15 14 14 14 14 13 12 12 11 10 10 10 9 9 8 8 8 8 7 7 7 7 7 6 6 5 5 5 5 5 6 6 7 6 6 5 5 4 5
15 13 13 14 15 14 14 14 13 13 12 11 11 11 10 10 9 9 8 8 8 8 7 7 6 6 6 6 6 5 4 4 4 4 5 5 6 5 5 4 3 4 3
14 14 15 15 15 15 14 13 13 13 12 12 11 11 10 10 9 9 8 8 8 7 7 7 6 6 6 6 5 4 3 3 3 3 3 4 3 4 4 3 3 2 2
13 13 15 15 14 14 14 14 13 13 12 12 11 11 10 10 9 8 8 7 7 7 6 6 6 6 5 4 4 3 2 2 2 2 2 2 2 2 1 2 2 2 2
12 12 13 14 14 14 14 14 13 13 12 12 11 11 10 9 9 8 7 7 7 6 6 6 6 5 5 4 3 2 2 2 1 1 1 0 1 1 0 -1 -1 -0 -1
13 13 13 13 13 13 13 13 13 13 12 11 11 11 10 9 8 8 7 7 7 6 6 6 6 5 4 4 3 2 1 1 1 0 0 -0 -0 -0 -1 -2 -2 -2 -2
12 12 13 12 12 13 13 13 12 12 12 12 10 11 10 9 8 7 7 7 6 6 6 6 5 5 4 3 2 2 1 0 -0 -0 -0 -0 -1 -1 -1 -2 -2 -2 -1
12 12 12 12 12 12 12 12 12 12 12 12 11 10 9 8 8 7 7 7 6 6 5 5 5 4 4 3 2 1 1 -0 -0 -1 -1 -1 -2 -2 -2 -2 -2 -2 -2
11 12 12 12 12 12 12 11 11 12 12 11 10 9 8 8 8 7 7 7 6 6 5 5 4 4 3 3 2 1 0 -1 -1 -2 -2 -2 -2 -2 -2 -3 -2 -2 -1
5 5 6 7 8 9 10 10 10 11 11 10 8 7 8 8 7 7 6 6 6 5 5 5 4 4 3 3 2 1 1 -0 -1 -1 -2 -2 -2 -2 -1 -2 -2 -1 -1
4 4 3 4 4 3 5 4 6 9 8 7 8 7 7 7 6 6 6 6 5 5 4 4 4 3 3 2 2 1 1 0 -0 -1 -1 -1 -1 -1 -2 -1 -1 -1 -1
3 3 2 2 2 1 2 1 1 2 4 5 5 4 2 5 6 5 5 5 4 4 4 3 3 2 2 2 1 1 1 1 0 0 -0 -1 -2 -2 -2 -0 -0 -0 -0
3 2 2 1 1 1 0 0 1 0 -0 0 2 3 3 3 3 3 3 4 3 3 3 3 2 2 1 1 1 1 1 1 1 -0 -1 -2 -2 -3 -2 -2 -1 -1 -0

GFSMW_925_temp_297.txt.gz
Temp
13 13 13 13 13 13 13 12 12 12 12 12 11 11 10 10 10 10 10 10 10 10 10 11 11 11 11 11 12 13 15 16 15 16 18 19 21 21 20 21 21 21 21
12 13 13 13 13 13 12 12 12 12 11 11 11 10 10 10 10 10 10 10 9 9 9 9 10 10 11 11 11 11 11 13 14 15 16 15 18 20 21 21 21 22 22
11 12 12 13 13 13 13 12 12 11 11 11 11 11 10 10 9 9 9 9 9 9 9 9 9 10 10 9 10 10 10 11 12 13 15 15 15 16 20 20 20 20 21
12 12 12 13 13 13 12 12 12 12 11 11 11 10 10 9 9 9 9 9 9 9 8 8 9 9 9 8 8 9 10 10 9 10 13 14 15 15 16 18 20 19 19
11 11 12 13 12 12 12 12 12 12 11 11 11 10 10 9 9 9 9 9 9 8 8 8 8 8 8 8 8 8 8 7 8 8 8 10 14 15 14 15 17 18 19
11 12 13 13 13 13 12 12 12 12 11 11 11 10 10 9 9 9 9 8 8 8 8 8 8 8 7 7 7 7 7 7 7 7 8 8 9 12 14 14 14 15 17
10 12 12 13 13 13 13 13 12 12 12 11 11 10 10 10 9 8 8 8 8 8 8 8 7 7 7 7 7 7 7 7 7 6 6 7 8 9 10 12 15 15 16
10 11 13 14 14 14 13 13 12 12 12 11 11 11 10 10 9 9 8 8 8 8 7 7 7 7 7 7 6 6 6 7 6 6 7 7 7 8 9 10 10 14 15
9 11 13 14 14 14 14 13 13 12 12 12 11 11 10 10 9 9 9 8 8 8 7 7 7 7 7 6 6 6 6 6 6 6 6 7 7 7 7 8 8 9 11
9 11 13 14 14 14 14 14 13 13 12 12 12 11 11 10 10 9 9 8 8 8 7 7 7 7 6 6 6 6 5 6 6 5 6 6 6 7 6 6 6 6 6
9 11 13 14 14 14 14 14 13 13 13 12 12 12 11 11 10 9 9 9 8 8 7 7 7 7 6 6 6 5 5 5 5 5 5 5 5 5 5 5 4 4 4
9 11 13 14 14 14 14 14 14 13 13 13 12 12 11 11 10 10 9 9 8 8 7 7 7 7 6 6 5 5 5 4 4 4 4 4 4 4 3 3 2 2 3
9 11 12 12 14 14 13 14 14 14 14 13 12 12 11 11 11 10 10 9 9 8 8 7 7 6 6 6 6 5 5 4 4 3 3 3 3 1 1 1 1 1 1
9 10 11 11 12 12 12 12 12 12 13 13 13 12 12 12 11 11 10 10 9 9 8 7 7 6 6 6 5 5 4 4 3 3 2 2 2 1 1 -0 -0 -1 -1
9 9 10 11 12 12 12 12 12 12 13 12 12 12 12 12 11 11 11 10 9 9 8 7 7 6 6 6 5 5 4 3 2 2 2 1 1 1 0 -1 -1 -2 -2
9 9 10 11 11 11 12 12 12 12 12 12 12 11 11 12 11 11 11 10 9 9 8 8 7 6 6 5 5 4 4 2 2 1 1 1 -0 -0 -1 -2 -2 -2 -2
9 9 9 9 8 8 8 8 9 10 10 11 11 11 11 10 10 11 10 10 10 9 8 7 7 6 6 5 4 4 3 2 1 1 0 -0 -1 -1 -1 -2 -2 -2 -2
6 6 5 6 6 5 6 7 7 8 8 8 7 8 8 9 9 9 8 10 9 8 8 7 7 6 5 5 4 4 3 2 1 1 0 -1 -1 -1 -1 -2 -2 -3 -3
4 4 4 4 4 4 4 4 5 5 5 4 4 5 6 7 8 8 7 9 9 8 7 7 6 6 6 5 4 3 3 2 2 1 0 -1 -1 -1 -2 -2 -2 -2 -3
3 3 3 3 3 3 3 3 3 2 2 2 2 3 4 5 6 6 7 7 8 8 7 7 6 6 5 5 4 3 3 2 2 1 0 -1 -1 -2 -2 -2 -2 -2 -3
3 3 3 2 2 2 2 2 2 2 1 1 1 2 2 2 3 4 5 6 5 6 6 5 4 4 5 5 4 4 3 2 2 1 0 -0 -1 -1 -1 -1 -2 -2 -2
3 3 2 2 2 2 1 1 1 1 0 -0 -0 0 1 1 2 2 3 4 5 6 5 4 3 4 5 4 4 4 3 2 1 1 1 0 0 -0 -1 -1 -1 -1 -2
3 2 2 2 2 2 1 1 1 0 0 -0 -1 -1 -1 -1 -0 1 1 1 0 2 3 3 2 2 3 4 3 3 3 2 1 1 1 0 0 -0 -1 -0 -1 -1 -1
3 2 2 1 1 1 1 1 0 -0 -1 -1 -1 -1 -1 -1 -1 -1 -1 -1 -0 -0 -0 -0 -0 -0 1 2 2 2 2 1 1 0 0 0 -0 -0 -0 -0 -1 -1 -1
2 1 1 0 0 0 -0 -1 -1 -1 -1 -2 -2 -2 -1 -1 -1 -1 -1 -1 -1 -1 -1 -1 -1 -1 -1 -0 1 1 1 1 0 0 -0 -0 -0 -0 -0 -0 -1 -1 -1
1 1 0 -0 -1 -1 -2 -2 -2 -3 -3 -2 -2 -2 -2 -1 -1 -1 -1 -1 -1 -1 -1 -1 -1 -1 -2 -1 0 0 0 0 0 -1 -1 -1 -1 -1 -1 -1 -1 -1 -1